Regional Weather Roundup
Issued by NWS

Home | Current Version | Previous Version | Graphics & Text | Print | Product List | Glossary On
Versions: 1 2 3 4 5 6 7 8 9 10 11 12 13 14 15 16 17 18 19 20 21 22 23 24 25 26 27 28 29 30 31 32 33 34 35 36 37 38 39 40 41 42 43 44 45 46 47 48 49 50
000
ASUS45 KCYS 271610
RWRWY

WYOMING REGIONAL WEATHER ROUNDUP
NATIONAL WEATHER SERVICE CHEYENNE WY
1000 AM MDT FRI MAR 27 2015

NOTE:  "FAIR" INDICATES FEW OR NO CLOUDS BELOW 12,000 FEET
WITH NO SIGNIFICANT WEATHER AND/OR OBSTRUCTIONS TO VISIBILITY.

WYZ001-271700-
YELLOWSTONE NATIONAL PARK

CITY           SKY/WX    TMP DP  RH WIND       PRES   REMARKS
LK YELLOWSTONE   N/A     33  28  81 SE6       30.36F WCI  28
W YELLOWSTONE  NOT AVBL

$$
WYZ002>013-054>058-071-098>099-271700-
NORTHERN WYOMING

CITY           SKY/WX    TMP DP  RH WIND       PRES   REMARKS
JACKSON        SUNNY     34  28  80 CALM      30.35F
CODY           FAIR      57  30  35 W14G23    30.16S
GREYBULL       FAIR      48  33  56 CALM      30.16F
WORLAND        FAIR      52  32  46 CALM      30.16F
SHERIDAN       FAIR      61  34  36 NW20      30.08F
BUFFALO        FAIR      56  34  43 SE6       30.12F
GILLETTE       FAIR      55  38  52 W18G24    30.08F
HULETT         PTSUNNY   52  39  62 SW10      30.07S
NEWCASTLE      FAIR      48  37  66 NW8       30.09F

$$
WYZ014>020-022>026-101>103-271700-
CENTRAL WYOMING

CITY           SKY/WX    TMP DP  RH WIND       PRES   REMARKS
BIG PINEY      FAIR      49  30  48 CALM      30.33S
PINEDALE       FAIR      46  32  57 W18       30.32S
DUBOIS         FAIR      46  30  53 N16       30.29F
LANDER         FAIR      57  28  33 E8        30.20S
RIVERTON       FAIR      50  31  48 E5        30.21S
CASPER         FAIR      54  32  43 SW21      30.17F
DOUGLAS        FAIR      54  32  43 NW10      30.15F

$$
WYZ021-027>030-104>119-271700-
SOUTHERN WYOMING

CITY           SKY/WX    TMP DP  RH WIND       PRES   REMARKS
EVANSTON       FAIR      45  29  53 SW10      30.37S
KEMMERER       FAIR      43  32  65 W12       30.36S
FORT BRIDGER   FAIR      52  31  45 W13       30.39S
ROCK SPRINGS   FAIR      48  29  47 W8        30.33R
DIXON          FAIR      45  32  60 CALM      30.36S
RAWLINS        FAIR      46  30  53 W14       30.29S
SARATOGA       FAIR      46  30  53 W16       30.31S
LARAMIE        FAIR      48  28  46 W13       30.23F
CHEYENNE       FAIR      53  28  38 NW18G25   30.19S
TORRINGTON     FAIR      50  33  52 W10       30.12F
PINE BLUFFS    FAIR      52  32  46 NW14      30.16S

$$



USA.gov is the U.S. government's official web portal to all federal, state and local government web resources and services.